User: anonymous   Login
Location: Unspecified
(0.0000°N, 0.0000°E)
Time: 16:00:42
(UTC+00:00)
Language:

ITOS 1 - Orbit

View from above orbital plane
View from above orbital plane
View from above satellite
View from above satellite

Ground track
Ground track

The orbit data is extracted from the following two-line orbital elements,

1  4320U 70008A   19015.87369064 -.00000058 +00000-0 -87919-4 0  9996
2  4320 101.7563 087.3445 0028948 164.4903 325.9747 12.52051974434771
Epoch (UTC): 15 January 2019 20:58:06
Eccentricity: 0.0028948
inclination: 101.7563°
perigee height: 1433 km
apogee height: 1478 km
right ascension of ascending node: 87.3445°
argument of perigee: 164.4903°
revolutions per day: 12.52051974
mean anomaly at epoch: 325.9747°
orbit number at epoch: 43477

The dashed part of the orbit path shows where the satellite is in the earth's shadow,  

DLR